Погода в Онацковцах

Украина / Хмельницкая область     49°57′05″N   27°28′41″E
темп.,
°C
ветер,
м/с
пор.,
м/с
влажн.,
%
обл.,
%
осадки,
мм/ч
давл.,
гПа
погр.,
м
20 мая, пт
пт2000:00+11зсз347782 0.0 102361
03:00+10з33785 0.0 102339
06:00+10зюз3678100 0.0 1022100
09:00+16зюз4664100 0.0 1021320
12:00+20зюз5756100 0.0 1019923
15:00+22з6851100 0.0 10181420
18:00+20з5962100 0.0 1016517
21:00+16з4118110 0.0 1016256
21 мая, сб
сб2100:00+15зюз5138562 0.1 1014307
03:00+14зюз5148795 0.1 1013314
06:00+13зюз41283100 0.0 1012261
09:00+16з71677100 0.3 1011786
12:00+17зюз8168450 1.9 1009960
15:00+17з9158830 3.3 1009967
18:00+17сз1016660 0.1 10101519
21:00+14зсз714675 0.1 1010985
22 мая, вс
вс2200:00+12з714704 0.0 1010868
03:00+11з714785 0.0 1008893
06:00+11з8158098 0.0 10061155
09:00+10зсз91580100 0.4 10061247
12:00+8зсз91589100 0.6 10071290
15:00+9зсз91390100 0.8 10081040
18:00+9сз71289100 0.1 1008800
21:00+9сз51093100 0.2 1009682
23 мая, пн
пн2300:00+8зсз51096100 0.4 1009559
03:00+8с4797100 1.3 1009524
06:00+7ссв4696100 0.3 1011443
09:00+9всв4681100 0.3 1013656
12:00+12ссв4566100 0.2 10131259
15:00+14ссв4551100 0.5 10131827
18:00+14с245664 0.0 10131223
21:00+9ссз226824 0.0 101415
24 мая, вт
вт2400:00+7ссз227353 0.0 101610
03:00+6сз11805 0.0 101610
06:00+6сз11824 0.0 101710
09:00+12св22630 0.0 1017396
12:00+15в33473 0.0 10171577
15:00+17вюв33445 0.0 10171660
18:00+17вюв33485 0.0 10171500
21:00+11вюв35705 0.0 101856